GFSSW_850_rhum_024.txt.gz
RH
55 48 38 31 22 19 21 20 20 20 23 23 22 19 18 16 11 23 25 24 24 15 11 12 18 19 23 24 24 22 31 32 22 42 42 53 54 58 70 80 98 92 90 98 100
74 68 64 50 30 21 21 21 21 22 24 25 22 20 18 15 14 27 25 18 22 10 10 18 16 20 24 25 25 26 37 28 22 22 43 50 51 56 72 94 99 98 100 100 98
92 84 78 74 55 28 21 21 21 23 26 27 23 20 19 14 16 30 24 15 22 10 18 21 16 19 18 20 21 22 27 22 18 22 45 46 50 55 74 82 92 98 96 98 100
96 98 88 85 74 46 24 22 23 24 28 28 24 21 19 12 29 20 22 11 18 11 23 25 23 23 22 23 20 23 19 19 17 22 45 47 49 57 60 67 75 84 84 95 99
71 79 82 76 84 72 33 24 24 25 29 30 24 23 20 12 15 30 23 11 12 11 22 22 22 25 26 22 19 22 18 17 17 34 42 47 51 60 99 88 88 100 99 98 80
84 80 58 72 73 83 51 26 26 27 31 32 24 24 22 17 30 32 22 14 13 17 18 20 23 25 26 26 20 19 19 23 30 41 42 47 52 60 100 100 100 100 97 81 70
70 87 87 79 68 79 70 33 26 28 35 33 25 25 22 14 23 33 29 19 15 16 18 18 21 24 24 26 23 24 22 29 40 41 44 37 48 78 100 99 90 91 80 71 49
33 73 81 83 82 83 82 41 27 29 34 34 26 25 20 8 14 33 27 26 25 17 17 20 24 26 25 24 24 22 20 35 31 36 38 39 57 78 100 98 95 82 85 74 72
7 48 74 90 96 71 85 55 25 29 34 32 30 27 20 11 10 22 24 23 24 26 25 24 25 24 25 29 29 27 23 30 34 33 38 35 58 66 97 96 98 100 72 65 69
5 22 60 97 99 84 76 63 26 33 36 42 49 35 13 19 24 23 23 24 25 26 28 27 24 32 36 32 36 30 26 29 32 28 36 39 57 66 80 83 88 92 85 70 67
5 13 53 53 100 89 67 46 41 56 63 44 21 18 12 19 25 22 23 22 26 27 32 27 33 38 29 31 26 28 25 24 24 22 33 42 60 66 75 74 77 84 88 82 71
6 7 52 66 100 96 84 42 58 66 73 32 35 44 41 42 39 26 24 23 27 33 29 34 38 29 27 29 29 28 26 28 26 20 23 43 55 61 68 68 66 71 78 76 70
9 6 39 86 98 98 81 48 69 86 80 42 36 38 32 30 30 24 22 22 26 32 33 36 26 24 27 27 28 27 26 27 29 24 32 42 52 60 52 55 56 61 64 71 69
28 7 48 98 99 77 66 75 74 79 65 47 56 42 38 28 29 20 22 19 22 26 34 32 27 26 24 27 27 25 26 26 30 27 36 29 38 44 57 60 54 56 61 59 62
54 28 36 100 90 67 78 82 54 62 60 29 54 37 34 25 22 23 22 19 24 24 27 26 27 28 27 24 23 25 27 30 29 35 36 35 39 36 51 57 54 50 50 55 50
93 49 43 94 99 62 86 72 81 79 61 28 40 42 35 25 23 23 23 20 18 22 28 27 23 28 27 24 24 24 24 35 44 45 53 36 40 43 52 45 44 45 44 43 46
99 93 59 100 99 71 82 72 100 93 33 31 44 32 31 31 27 23 27 27 29 32 32 27 24 26 27 25 28 32 36 47 45 61 57 46 47 41 29 36 41 44 41 38 39
97 100 70 98 99 96 92 92 98 63 43 43 34 32 32 28 27 28 28 31 23 26 39 38 37 27 26 26 29 34 38 57 45 63 43 49 48 32 29 29 26 26 27 32 35
100 100 84 93 98 100 96 98 72 61 50 42 30 36 36 30 30 28 33 34 27 27 30 41 33 32 33 33 28 32 36 35 68 77 71 52 43 27 25 33 40 38 34 31 28
93 99 93 96 100 100 98 80 69 51 50 51 43 37 45 40 31 33 37 30 26 27 24 34 33 38 35 33 31 29 37 42 57 50 55 50 44 36 27 31 41 47 40 34 36
99 96 80 89 95 100 89 76 59 50 50 58 61 57 40 40 37 38 38 24 27 28 28 40 32 33 40 38 34 36 37 45 47 61 58 66 47 37 29 29 28 32 31 32 31
98 93 76 86 97 83 76 67 52 52 49 55 56 63 56 38 39 37 35 28 22 34 34 41 44 54 36 31 32 30 35 42 62 44 78 78 54 28 30 29 24 22 21 26 30
94 87 82 90 91 89 66 63 61 52 51 57 62 57 44 36 33 38 36 26 27 33 41 45 44 57 40 32 36 35 37 43 53 64 66 70 53 27 31 29 21 19 18 23 27
100 93 97 94 58 66 71 69 72 56 54 52 61 57 51 48 42 35 37 40 37 30 30 30 49 39 38 33 40 40 39 45 46 70 60 67 41 29 27 32 27 19 19 21 26
99 84 76 90 86 72 60 60 72 67 54 51 62 66 54 56 41 45 49 50 44 46 43 39 40 42 37 36 41 39 34 47 44 44 49 41 46 35 34 30 27 24 24 31 38
97 82 70 84 70 73 72 67 69 63 66 67 62 55 61 68 49 39 49 52 47 49 48 49 46 40 45 46 42 41 39 43 41 39 41 40 40 35 30 34 34 32 39 42 44
100 82 84 67 75 77 69 64 62 57 57 52 53 53 59 51 38 37 38 44 47 52 57 51 67 62 50 54 45 61 50 44 43 40 39 46 38 38 40 46 45 40 40 40 38

GFSSW_850_rhum_030.txt.gz
RH
95 99 95 89 85 82 77 63 30 20 20 20 21 21 19 15 12 19 26 23 19 14 12 15 19 27 22 20 22 18 14 17 16 15 17 27 36 52 66 58 66 80 71 93 99
99 100 99 100 99 92 86 77 63 28 20 20 21 22 19 15 11 24 25 18 16 11 14 24 23 21 17 18 20 16 14 14 12 12 14 22 37 46 51 56 71 96 100 100 100
63 71 96 98 100 95 92 82 77 51 24 20 22 24 21 15 11 32 27 16 16 10 19 19 19 18 16 18 17 16 15 13 14 15 15 34 39 49 44 43 54 92 99 100 100
57 57 63 69 85 72 73 77 75 71 36 22 22 25 22 16 17 26 26 14 13 15 20 20 21 17 15 15 16 17 15 15 15 18 25 36 46 54 52 65 75 98 100 98 99
24 36 53 65 69 70 69 65 62 77 52 27 22 27 25 31 17 17 26 13 12 17 23 22 21 20 18 18 18 18 15 16 18 21 41 40 40 48 73 92 92 98 98 100 99
7 10 23 52 71 64 63 52 50 74 68 35 24 26 37 26 12 28 21 13 12 25 26 24 22 24 21 20 20 18 18 19 22 28 41 41 45 47 82 91 97 98 97 99 88
5 5 7 18 52 59 57 52 49 66 77 52 26 28 35 27 12 30 20 16 13 25 24 22 24 24 23 19 22 20 21 20 22 35 34 38 36 50 79 74 79 89 79 76 91
6 6 5 6 11 42 54 36 46 62 73 66 29 31 43 17 12 25 26 18 16 18 21 24 24 26 25 22 19 18 17 21 25 29 34 34 37 56 82 71 61 63 69 72 82
11 8 6 6 6 26 52 27 48 49 58 54 36 38 31 18 13 18 34 30 23 19 18 24 28 24 23 17 16 17 18 21 23 25 29 29 33 45 82 66 50 55 63 62 68
27 27 10 7 6 23 40 37 46 41 48 46 58 53 29 19 22 14 30 31 31 30 28 26 25 20 17 16 19 18 18 17 23 24 26 27 31 39 66 63 55 48 52 54 55
76 27 21 11 8 37 44 64 70 65 63 48 39 35 19 25 28 32 19 30 30 29 27 27 24 20 14 15 18 20 18 17 16 20 25 24 23 36 52 62 63 55 51 50 52
100 79 54 22 13 44 53 79 78 68 60 52 30 44 39 28 33 33 32 27 29 27 23 25 25 15 17 18 20 21 19 19 17 18 21 19 21 29 43 52 53 53 58 52 49
98 100 89 47 28 44 44 77 65 70 76 45 52 43 41 36 29 24 31 27 25 24 24 23 18 20 20 22 23 22 19 21 20 20 19 20 20 29 35 46 51 53 50 52 44
95 99 99 96 41 66 62 53 56 83 53 25 38 39 43 33 30 24 28 23 22 23 21 22 18 21 20 20 20 23 18 20 22 22 21 21 20 22 25 38 45 48 51 49 45
99 93 98 100 100 95 85 68 70 78 32 19 41 47 46 28 22 27 26 25 21 22 24 21 20 22 22 18 18 19 20 21 21 21 24 24 19 19 28 30 28 34 41 45 42
100 94 93 99 98 83 83 84 82 66 39 22 40 46 44 36 22 25 27 23 18 18 20 16 19 18 16 19 19 21 23 24 24 24 30 22 21 16 17 17 16 21 28 35 39
78 99 87 98 92 98 97 95 76 63 23 20 37 40 34 30 24 21 23 25 22 27 26 19 19 17 20 20 22 21 22 28 30 33 32 29 30 18 14 14 17 18 18 27 34
62 94 95 77 92 100 100 98 61 22 27 29 30 34 34 22 22 24 22 24 18 17 20 23 25 19 19 19 21 23 19 28 39 36 25 32 28 18 14 17 19 22 23 24 30
62 80 99 88 64 99 99 90 32 26 25 29 27 36 36 24 21 24 23 21 20 18 21 24 21 19 22 21 20 26 26 19 32 46 33 22 20 16 13 13 21 22 25 26 26
64 92 99 92 76 93 97 67 28 25 26 24 28 26 31 30 23 25 26 21 19 17 15 21 24 21 27 26 26 24 21 30 30 41 38 25 24 18 15 13 15 14 18 20 30
88 98 98 82 88 99 95 60 33 28 32 39 31 24 27 33 24 25 24 25 20 20 16 16 20 32 32 30 22 29 26 27 26 29 31 31 23 15 15 14 15 15 20 22 26
97 97 96 85 95 83 93 52 33 29 39 41 39 35 38 29 29 25 25 21 21 17 25 19 22 27 22 24 24 19 20 25 33 32 36 42 27 14 15 15 19 18 20 24 31
95 97 98 86 88 88 52 51 41 36 35 47 42 40 43 41 37 29 24 25 26 22 20 24 27 32 24 27 27 26 24 23 28 33 30 48 26 18 17 18 17 20 19 21 25
96 98 100 97 58 56 45 46 49 43 34 38 41 41 47 48 41 38 32 35 32 21 23 24 21 25 30 21 18 29 24 24 26 34 28 28 20 16 16 16 15 18 22 22 33
98 91 88 96 74 46 43 43 53 46 39 37 42 41 46 52 43 44 37 46 38 38 24 26 25 23 18 16 16 18 17 21 24 23 25 22 21 19 16 16 18 24 30 36 45
96 81 76 69 61 48 48 41 50 39 32 44 46 43 40 47 36 53 44 41 41 40 32 30 27 28 29 20 22 23 18 17 19 18 17 22 22 17 17 21 23 27 35 42 50
95 72 59 50 63 56 54 44 41 40 33 30 30 38 42 45 40 52 56 47 41 43 41 38 34 36 33 35 33 47 32 22 21 19 21 26 22 16 20 22 24 33 38 43 48

GFSSW_850_rhum_033.txt.gz
RH
98 100 95 97 92 80 78 75 68 63 39 22 19 18 19 16 12 19 30 30 21 16 10 26 25 21 19 14 14 13 12 17 13 12 14 16 23 33 42 40 44 76 87 91 97
93 98 100 100 93 88 71 75 72 64 59 36 20 19 20 17 12 23 30 21 13 12 22 18 17 18 15 13 14 11 11 13 11 12 13 18 24 31 33 40 53 99 99 99 98
65 68 79 64 70 72 59 61 62 57 56 55 28 19 19 18 31 26 31 18 12 9 22 15 16 14 13 12 12 12 14 12 12 14 15 23 26 36 34 72 67 80 99 100 100
16 33 56 56 58 59 57 49 45 52 48 53 42 21 18 18 17 34 23 13 11 11 21 16 14 14 13 12 11 13 12 12 13 14 20 25 28 29 43 57 64 99 98 99 98
6 8 13 19 38 56 54 50 43 45 45 46 51 25 19 35 20 17 23 11 10 15 19 15 15 16 14 12 13 13 12 12 13 16 26 29 30 32 57 68 88 98 98 98 96
6 5 7 5 8 26 45 42 40 43 49 50 57 34 47 34 22 17 27 11 23 25 21 19 18 17 18 15 14 15 14 13 14 17 24 30 32 38 57 65 78 80 95 88 91
7 6 5 6 4 6 15 23 33 51 42 46 64 54 50 33 25 33 32 25 23 24 21 20 20 20 18 15 15 15 15 14 15 19 20 32 52 39 59 61 69 81 74 78 74
20 10 7 6 4 4 5 12 30 42 36 39 58 49 47 28 22 32 37 26 25 24 23 21 21 22 20 17 15 14 13 22 23 18 21 41 71 44 52 46 48 52 56 59 67
91 40 14 8 6 4 4 14 27 31 41 34 54 66 35 29 21 25 34 22 23 23 24 22 21 20 18 17 14 13 16 31 28 15 20 38 75 37 45 40 40 39 44 46 58
99 98 58 22 7 5 4 21 26 34 55 48 73 60 40 21 19 17 36 27 22 22 21 21 20 18 15 14 18 16 14 15 24 20 18 23 22 34 41 39 38 36 37 39 44
98 99 99 62 15 7 7 73 70 78 74 34 34 21 18 20 27 19 30 31 26 24 23 22 22 21 15 12 11 16 15 15 18 22 17 20 28 24 35 37 41 35 42 36 37
98 96 99 99 79 21 29 65 48 73 40 29 34 34 31 27 25 19 24 30 26 25 21 21 24 16 12 11 13 15 15 14 15 14 15 15 18 28 28 34 35 35 39 38 36
99 96 93 99 98 36 56 58 70 73 49 28 26 28 24 28 23 18 25 24 22 22 19 21 16 13 14 14 16 15 16 18 16 16 13 14 16 16 18 27 33 33 32 33 35
80 100 94 91 77 64 72 62 69 76 46 18 28 31 28 26 24 18 21 20 18 20 18 18 15 16 15 15 14 17 13 17 16 17 21 15 26 18 16 22 28 32 31 30 32
69 81 100 87 87 84 67 73 83 83 32 12 18 31 25 26 12 20 18 19 19 18 17 20 18 18 18 15 14 16 17 16 17 18 18 16 17 21 12 19 21 25 31 31 31
72 67 99 97 89 74 93 94 94 52 34 17 29 32 33 26 14 15 18 20 17 16 16 17 13 13 14 13 14 14 18 18 18 20 29 20 17 25 14 13 14 16 22 28 29
74 62 83 96 86 71 96 96 64 41 10 14 25 29 30 28 20 16 20 23 22 26 24 19 16 13 13 17 16 17 20 28 32 32 32 18 19 16 19 11 12 12 14 21 27
79 67 68 95 96 84 100 98 48 20 16 19 16 26 33 22 25 21 23 22 18 17 21 23 25 16 15 16 18 19 18 27 58 58 33 22 23 15 11 12 12 12 12 13 20
83 89 99 90 93 93 98 96 50 20 11 15 20 30 30 22 21 21 21 20 17 15 21 21 19 12 13 14 14 19 23 15 22 26 33 25 16 12 12 10 11 13 15 16 17
97 94 84 89 88 89 97 82 45 21 11 13 22 23 29 26 22 21 22 15 16 13 15 16 21 14 15 16 16 19 17 26 25 51 45 22 19 18 14 11 11 10 13 14 19
100 99 76 96 94 98 93 68 38 27 15 13 21 23 23 25 22 20 21 16 14 13 14 17 19 18 20 22 19 22 24 23 21 24 39 34 23 14 13 12 12 12 12 13 17
100 97 74 81 98 90 84 58 31 25 17 20 25 27 21 21 28 20 21 17 14 13 19 18 19 27 23 16 13 16 20 21 34 34 33 35 28 12 12 12 13 12 13 16 20
97 94 85 88 96 92 61 46 32 23 26 24 26 32 29 24 27 26 20 15 19 19 19 19 23 34 25 18 18 21 22 23 24 24 44 59 28 12 13 13 13 14 13 16 18
99 98 99 98 82 60 54 47 41 28 20 23 22 26 27 38 29 29 26 22 19 19 18 22 21 25 33 22 18 23 19 18 22 40 34 31 21 16 14 14 13 13 14 16 17
100 88 94 95 89 58 42 39 36 29 20 22 25 35 34 28 27 31 30 28 33 26 26 24 32 26 20 16 14 15 17 18 21 22 31 25 20 14 13 13 12 18 18 19 22
99 82 78 68 73 57 52 42 33 26 22 29 30 32 49 52 34 50 38 40 30 27 29 26 32 25 22 16 14 16 14 14 16 17 18 18 18 12 11 12 14 16 20 23 29
99 68 54 53 74 59 54 44 34 26 22 24 23 26 30 31 40 62 59 58 48 42 37 30 38 37 38 20 19 32 20 17 15 13 15 21 16 12 12 14 16 16 22 27 36

GFSSW_850_rhum_039.txt.gz
RH
29 33 43 45 62 54 48 42 42 44 45 45 43 40 30 30 24 17 13 22 28 26 11 13 21 16 19 19 17 14 20 25 18 18 19 19 28 52 63 70 61 69 86 83 92
9 9 8 9 14 29 37 36 35 32 26 27 28 23 23 27 22 16 16 19 26 18 9 17 20 17 18 17 17 16 24 21 14 15 17 16 28 52 52 62 70 98 100 100 100
8 6 5 4 5 8 8 9 15 19 19 21 21 16 14 23 23 30 23 22 21 11 13 22 18 16 16 14 14 14 20 14 12 14 14 26 35 46 56 58 60 79 100 99 96
10 7 6 4 4 5 4 4 5 12 16 19 17 14 11 24 34 28 23 17 16 8 14 17 14 13 16 18 13 14 12 11 12 13 15 24 38 65 57 69 61 87 89 94 99
41 16 7 5 4 4 4 3 3 6 8 16 18 24 13 51 31 18 27 21 16 8 8 18 16 13 17 18 18 12 12 12 13 12 17 33 55 77 95 92 87 88 96 98 89
92 57 20 8 5 4 4 3 3 3 5 9 26 25 42 78 13 28 28 22 15 10 10 20 17 13 18 18 22 16 15 14 13 13 20 35 50 59 85 77 83 84 90 93 88
94 97 63 20 11 6 4 3 3 3 6 14 31 41 54 13 11 28 34 37 18 13 17 18 16 18 18 23 19 18 21 17 15 13 29 24 38 65 69 80 80 77 89 94 85
87 90 93 85 43 13 6 3 3 3 7 17 31 54 74 2 10 8 24 33 30 19 20 19 20 19 19 19 20 22 20 24 17 30 32 26 45 48 61 66 72 70 74 87 86
83 82 85 96 85 40 10 4 3 4 9 41 43 60 71 32 23 8 23 24 31 23 20 20 20 20 20 26 31 26 30 23 19 20 40 38 50 45 52 68 64 66 60 75 92
67 66 83 88 97 79 20 7 2 4 32 89 78 83 35 19 17 21 18 22 29 23 21 21 20 28 28 30 40 32 24 23 25 25 37 56 60 48 46 69 63 61 63 69 82
78 75 73 78 92 96 32 11 34 67 88 76 52 24 21 22 26 22 21 23 28 23 29 22 32 36 29 25 22 20 20 21 23 23 33 49 64 46 36 63 60 53 57 69 70
84 73 74 78 85 94 74 33 33 68 74 59 54 57 42 34 40 27 18 21 29 32 25 29 34 26 21 20 21 21 22 19 17 21 24 49 58 47 52 60 46 44 50 63 68
86 81 78 69 76 79 57 30 12 43 70 49 39 35 22 21 29 30 20 19 31 33 27 32 28 21 22 23 23 21 21 18 20 21 19 24 71 70 57 54 50 36 36 46 64
84 88 80 70 76 89 76 82 45 60 94 42 19 21 21 18 23 19 24 18 30 32 28 30 23 23 23 25 20 23 15 17 19 23 34 20 39 70 58 49 47 38 34 42 58
86 81 82 78 83 75 90 88 68 69 55 19 14 12 14 19 19 22 16 23 30 32 29 31 27 27 26 22 18 21 19 21 22 29 26 26 34 30 46 51 43 42 41 38 48
79 84 85 81 73 56 73 82 81 92 90 22 22 26 25 19 20 19 20 22 18 28 26 26 19 20 21 19 18 16 21 21 24 30 48 31 33 40 47 42 37 38 40 37 38
85 79 89 80 66 84 81 80 94 88 12 10 27 25 28 30 24 24 27 28 31 34 36 27 24 19 17 23 19 20 24 42 45 52 56 42 42 38 26 27 24 33 32 36 36
88 83 84 86 63 94 100 96 99 35 30 13 14 26 35 29 31 30 29 33 25 27 35 37 39 22 18 21 24 23 26 55 48 68 52 46 45 36 28 26 17 29 28 26 36
91 96 91 80 68 84 100 97 63 44 21 18 15 21 22 32 31 31 32 33 28 23 33 37 32 18 16 16 17 22 30 24 38 55 64 67 46 36 26 24 23 21 25 25 23
100 100 97 67 76 92 97 80 63 42 27 25 26 21 22 24 34 38 36 26 28 20 21 28 37 23 19 16 18 20 20 34 44 68 68 60 56 44 28 23 18 18 26 22 22
100 100 96 74 88 99 96 81 55 43 37 42 33 26 23 28 25 24 37 26 22 22 20 23 30 33 24 23 22 25 26 30 38 53 65 63 50 34 33 25 19 15 15 17 20
100 99 96 76 98 94 89 71 53 38 40 40 36 34 36 31 30 28 52 42 38 31 27 23 33 38 30 24 18 21 24 28 65 53 54 68 47 26 25 26 17 16 13 15 19
98 98 97 84 96 95 72 71 63 61 46 40 40 33 32 34 37 58 55 46 52 59 46 26 31 40 35 24 22 23 23 24 31 50 53 66 56 31 26 26 15 15 13 15 18
99 99 100 100 73 72 75 73 75 56 60 47 40 36 36 40 32 54 59 50 58 61 64 52 28 33 41 32 30 32 30 25 28 59 53 62 44 34 31 27 23 20 19 18 16
100 98 87 95 95 77 64 59 68 72 50 46 46 44 42 45 38 46 51 62 51 58 66 62 47 29 24 26 27 28 29 30 28 32 44 46 44 36 32 25 21 18 18 17 17
100 99 96 67 80 82 71 69 62 54 50 50 45 39 39 44 37 40 54 74 76 76 76 64 60 42 42 25 25 29 30 29 25 26 33 33 35 28 23 22 30 20 19 20 20
100 92 76 75 81 94 81 71 64 56 48 41 39 42 44 41 34 55 50 66 82 73 85 88 78 50 48 37 34 48 35 27 27 24 23 41 34 23 24 26 26 22 18 20 19

GFSSW_850_rhum_042.txt.gz
RH
10 8 8 8 8 10 18 23 27 22 18 17 18 17 17 17 20 17 16 15 21 25 20 10 10 9 18 19 18 19 26 29 22 19 18 26 38 61 58 64 83 94 95 84 92
9 6 5 4 4 4 6 7 7 6 8 10 10 11 9 9 11 14 23 14 20 22 15 8 15 23 23 19 17 20 28 22 18 16 17 34 44 61 58 67 91 94 100 99 100
17 10 7 5 4 5 4 4 3 2 3 5 6 7 6 8 11 19 23 22 20 21 12 14 20 25 22 19 18 18 23 16 15 14 19 54 55 53 50 56 69 89 92 97 100
84 29 26 9 5 5 4 3 3 3 2 3 4 7 6 12 22 31 25 27 20 16 9 17 20 16 16 17 15 17 16 15 13 15 20 40 54 75 62 64 57 72 87 91 96
74 87 79 30 12 7 4 4 3 3 2 3 5 10 15 45 15 10 12 29 22 17 9 17 17 17 17 16 19 21 17 15 14 20 44 45 66 84 89 83 83 80 85 95 99
88 92 82 47 48 11 8 4 4 3 4 4 10 13 46 81 5 16 22 33 27 20 12 9 16 18 17 21 23 21 22 20 15 14 45 73 86 66 91 86 89 87 95 100 99
90 88 85 85 64 26 14 8 4 3 4 5 17 32 78 22 2 20 31 35 34 24 14 10 19 22 19 22 21 20 22 21 18 16 35 40 49 69 83 87 90 88 90 89 86
82 71 69 74 79 54 13 14 6 4 5 6 19 42 67 2 4 5 18 27 30 33 18 16 20 21 20 20 22 24 24 25 18 30 32 30 44 59 78 84 81 80 83 80 72
81 74 61 62 73 61 25 8 7 6 4 6 40 67 58 20 22 17 8 15 29 30 20 20 22 20 20 27 33 30 34 29 26 23 37 36 45 50 81 81 84 73 79 82 82
79 76 73 66 59 59 36 10 5 4 5 27 97 81 31 14 30 30 21 18 25 30 27 27 22 27 32 34 41 35 32 27 29 35 38 51 47 59 64 70 72 68 71 82 76
86 81 82 69 59 67 51 23 29 72 72 74 72 44 27 23 30 28 24 18 24 31 34 24 34 41 33 32 27 28 30 30 23 27 39 50 48 57 67 75 71 65 64 76 80
89 86 86 73 56 63 62 64 58 80 73 47 60 67 50 49 55 27 30 24 26 41 31 30 38 30 28 28 29 29 30 29 22 23 29 52 53 52 67 71 76 64 64 67 79
82 85 86 79 63 53 74 61 93 99 91 53 38 43 43 34 56 32 32 24 34 42 36 35 31 26 29 29 30 29 31 29 22 21 26 51 54 54 47 58 54 63 57 67 70
84 84 89 80 52 68 79 92 90 96 88 44 36 26 35 29 32 7 19 22 29 39 39 33 25 27 30 30 26 34 26 23 21 28 33 28 44 70 53 55 53 54 53 67 74
81 80 87 82 62 82 88 86 82 91 23 13 23 11 25 22 14 19 10 25 28 38 36 41 34 32 32 28 26 31 27 24 23 28 29 30 36 33 52 55 52 55 49 59 69
86 87 83 84 76 47 66 69 81 87 72 33 19 24 26 20 20 21 22 22 24 35 34 34 24 27 28 25 25 22 20 24 29 36 47 34 38 44 63 45 41 45 43 51 66
88 88 90 81 79 62 91 84 98 95 21 13 25 29 28 26 24 24 29 32 36 43 42 37 35 28 24 28 24 24 30 44 47 55 58 39 46 44 30 37 40 43 43 42 51
94 88 89 75 72 70 90 98 99 45 29 20 22 18 31 30 27 26 33 38 31 31 39 38 50 30 24 27 28 29 32 54 54 70 47 49 48 38 27 28 30 34 39 38 44
98 99 98 72 72 80 96 98 72 50 35 25 16 18 21 21 34 32 38 35 33 30 41 46 40 25 22 21 23 28 34 30 40 57 66 55 46 34 30 28 29 25 33 37 43
100 100 97 78 79 89 100 88 66 44 36 42 41 22 25 27 36 46 43 34 33 30 26 34 44 28 22 21 22 23 23 35 51 55 65 58 52 44 33 25 24 25 36 37 38
100 100 96 86 94 99 96 85 58 45 45 47 47 49 32 34 32 32 37 39 38 33 26 29 34 35 29 32 29 27 30 34 40 60 64 66 57 45 35 29 24 23 19 29 33
100 100 93 87 99 85 88 70 56 55 48 48 48 46 40 39 40 33 38 36 53 49 56 46 37 42 33 23 24 24 25 32 49 53 63 71 46 32 30 35 25 21 16 16 19
100 100 98 84 94 92 70 67 63 61 53 51 50 46 36 39 46 41 45 58 54 60 73 67 70 54 42 31 28 30 26 25 40 59 62 71 52 30 32 29 23 16 15 19 21
100 99 100 100 82 72 74 68 68 59 62 61 60 55 48 48 43 50 50 50 52 66 62 67 74 66 60 38 32 33 27 26 30 61 50 56 40 36 32 34 28 20 17 16 24
100 98 97 97 94 83 69 65 69 69 60 58 66 59 58 62 49 49 44 63 53 70 70 79 94 82 69 50 30 28 30 33 33 37 47 40 47 34 33 34 30 22 20 18 19
99 97 98 80 83 88 77 75 68 64 57 62 70 48 52 61 52 58 48 47 66 73 71 80 94 88 78 52 38 31 26 30 29 34 37 33 37 34 28 27 28 23 20 20 18
100 98 88 82 92 96 86 74 66 60 55 52 51 56 53 46 38 41 58 64 67 74 88 85 94 98 89 64 48 50 32 26 34 31 31 43 38 30 31 31 32 26 23 20 18

GFSSW_850_rhum_045.txt.gz
RH
11 17 8 6 7 7 5 5 6 8 5 4 5 6 7 7 14 14 15 16 19 15 25 14 13 8 12 20 20 20 31 34 26 21 20 31 45 57 56 65 79 85 99 99 100
29 23 20 9 8 8 6 4 4 5 3 2 3 3 4 4 6 11 14 18 26 28 21 12 16 20 22 21 21 24 32 25 20 17 18 31 45 60 66 66 83 86 100 98 98
16 29 48 44 13 21 6 6 4 5 4 3 2 2 2 3 6 15 25 21 20 24 24 10 21 24 24 22 19 21 27 22 17 16 16 49 59 55 53 58 59 72 90 95 94
32 27 60 52 48 39 13 9 6 5 4 4 3 2 2 7 13 31 26 26 25 24 23 13 22 23 19 20 17 19 18 18 17 15 32 57 55 68 61 54 54 58 80 91 84
38 34 37 64 67 52 29 12 17 6 5 5 4 5 6 32 6 8 27 22 25 24 18 10 20 18 17 16 19 22 21 21 20 18 31 48 64 69 81 71 76 76 89 89 95
30 30 31 63 62 68 44 11 28 9 7 7 6 9 31 82 4 6 7 8 23 24 19 10 17 19 20 20 24 22 23 23 19 32 52 63 77 77 83 81 82 84 91 92 97
50 56 38 52 46 58 35 24 12 10 12 9 9 17 49 7 3 4 21 29 35 32 23 14 10 21 21 22 21 21 24 24 19 26 49 57 66 89 70 89 87 92 98 98 100
62 53 41 60 68 51 37 23 12 7 13 11 11 40 45 2 3 3 6 30 36 34 29 20 16 23 23 21 23 24 26 29 21 31 36 32 47 54 81 91 93 91 87 99 98
83 80 67 59 64 45 26 20 14 11 9 12 17 52 45 12 16 26 26 9 34 27 32 28 24 23 23 30 32 32 31 30 28 21 36 40 44 51 86 96 93 88 80 77 92
79 84 84 79 64 49 26 18 16 17 14 16 78 65 12 11 24 32 30 30 12 24 31 35 29 31 35 34 40 33 35 30 29 26 40 46 45 58 94 90 86 76 72 66 76
80 85 85 84 80 67 33 39 32 80 74 49 57 32 28 42 38 32 37 26 26 30 42 28 36 42 36 32 28 28 30 33 30 24 33 46 48 52 77 86 82 81 75 67 63
84 83 78 79 79 69 58 74 84 92 94 60 42 52 33 41 61 22 37 26 30 42 37 34 38 33 31 31 32 33 35 36 30 25 32 40 50 53 75 81 78 71 70 60 64
83 81 81 81 78 67 59 92 88 87 97 78 29 17 22 35 53 27 29 30 31 43 41 44 33 30 32 33 35 36 38 35 32 26 36 46 44 59 52 66 74 72 58 60 58
86 80 78 79 81 72 84 91 86 98 98 41 52 28 32 34 56 21 22 29 31 35 44 40 30 30 35 33 34 40 31 30 34 30 39 34 49 34 57 62 65 67 70 61 59
90 88 83 75 82 74 71 81 76 98 22 13 29 20 30 32 18 31 9 28 32 42 42 48 37 36 35 32 31 35 30 34 35 34 33 32 39 32 59 62 60 59 60 61 58
91 91 89 87 83 71 74 56 87 94 55 28 22 36 39 31 23 26 28 23 26 31 37 38 28 30 32 28 29 27 30 30 34 41 52 35 38 42 53 46 43 45 47 49 52
89 94 92 91 88 75 73 78 97 95 31 18 25 28 30 32 26 27 32 34 37 46 44 36 38 32 27 32 28 31 33 49 48 57 56 36 52 46 31 39 41 43 43 39 45
88 98 96 93 83 84 81 96 96 55 50 26 22 18 33 26 25 27 35 34 33 33 42 40 46 35 33 35 36 37 37 57 53 67 44 49 56 40 33 27 25 28 28 38 42
91 99 98 91 88 93 86 98 69 60 41 47 32 17 24 26 34 29 35 40 31 34 39 48 43 26 27 27 31 37 41 32 42 61 66 54 46 35 34 31 32 32 38 43 39
98 99 99 90 96 99 98 79 64 51 47 44 52 42 40 36 37 43 44 38 35 32 29 36 45 33 27 25 27 28 28 38 54 54 69 56 57 45 28 25 26 33 32 38 39
100 100 98 98 99 100 93 71 60 51 52 59 52 45 42 41 42 39 34 51 49 46 38 33 37 37 30 34 33 31 36 36 38 57 46 48 51 48 32 32 29 29 23 25 35
100 100 100 93 99 97 85 61 51 52 52 50 54 54 52 44 41 34 37 31 54 52 69 63 51 54 38 26 25 27 32 37 44 47 69 68 38 29 36 36 37 33 23 18 20
100 99 100 100 97 95 70 67 60 64 59 56 58 55 38 42 45 43 40 55 56 68 61 54 78 79 51 34 31 34 30 30 45 54 44 59 40 32 29 32 27 25 18 14 16
100 99 100 100 93 71 84 74 72 58 63 63 66 61 52 54 47 49 49 44 57 62 61 67 79 85 94 90 75 66 48 30 35 55 49 46 37 33 34 34 32 23 19 17 14
100 98 97 97 97 82 68 64 70 68 60 59 61 66 68 76 58 56 46 54 56 66 66 70 76 91 86 63 55 58 57 48 38 34 42 38 45 34 34 34 31 23 21 20 16
99 99 98 95 93 96 84 77 67 59 56 66 77 65 62 65 58 55 50 46 58 62 63 77 73 86 86 54 55 58 52 50 41 34 42 36 41 34 30 28 30 27 24 20 19
100 94 98 97 98 96 86 76 75 60 60 53 61 64 67 59 51 46 44 41 51 64 83 88 92 91 84 75 62 56 62 48 38 30 36 42 35 28 35 37 33 26 25 24 21

GFSSW_850_rhum_048.txt.gz
RH
40 22 16 13 12 9 6 7 5 5 6 4 3 2 2 4 3 5 9 12 14 19 22 20 13 10 21 22 22 21 34 36 27 24 20 36 45 52 58 63 76 83 94 94 96
60 50 34 22 12 13 11 11 10 6 7 5 3 2 2 4 2 3 10 12 21 18 25 19 16 10 15 22 22 26 35 29 24 20 20 26 39 45 62 64 77 94 96 92 90
45 49 52 50 26 13 12 13 12 11 10 6 4 3 2 4 6 11 30 21 28 28 25 18 21 23 24 22 22 25 29 24 20 17 18 24 54 56 62 58 54 72 91 93 87
42 44 47 44 43 28 13 13 12 14 12 13 6 4 3 5 13 30 29 28 28 27 26 15 24 26 22 25 20 21 20 19 18 19 23 53 54 62 54 51 56 60 83 93 89
46 40 41 43 31 30 18 17 14 12 13 17 12 6 5 28 8 11 31 23 24 29 27 15 21 21 19 19 19 20 21 22 21 20 24 45 59 64 71 62 70 73 87 94 99
50 52 45 47 36 19 18 19 20 13 15 12 22 7 23 75 5 7 4 10 13 14 27 18 17 20 18 19 24 22 24 24 20 19 52 59 73 77 64 68 74 82 95 99 99
74 73 78 58 38 25 19 18 18 20 16 15 23 19 44 4 2 6 5 23 24 25 26 20 14 24 23 24 22 22 26 24 20 20 47 57 56 85 63 73 79 89 99 99 97
83 86 81 81 76 43 24 15 14 15 16 14 20 44 47 2 2 3 4 14 37 34 31 24 17 21 23 23 24 25 27 30 22 37 36 45 45 43 68 77 86 95 98 97 99
77 80 78 84 83 67 43 35 22 16 12 15 21 55 35 10 10 28 33 15 30 39 35 29 25 24 25 31 35 34 33 30 26 23 38 40 47 55 87 88 89 94 97 100 99
80 83 79 81 83 83 75 36 27 69 35 28 84 72 10 5 22 34 40 39 29 28 34 36 35 35 38 36 44 38 39 35 32 24 39 48 51 51 90 96 90 84 87 94 95
80 83 79 80 80 81 75 49 40 58 55 78 66 38 25 32 37 41 40 37 31 33 47 38 43 44 39 34 28 29 31 33 30 26 25 30 37 30 87 100 98 88 83 83 78
81 80 77 79 83 83 78 88 99 97 97 65 34 57 38 60 66 12 28 33 33 42 40 38 43 36 32 33 32 31 32 36 31 27 29 34 40 48 76 89 91 88 79 71 76
83 72 73 77 77 77 73 91 99 83 98 76 54 45 43 42 51 24 32 32 34 44 45 42 35 32 33 37 37 38 40 37 34 34 31 43 43 48 50 70 74 80 73 65 60
84 76 73 83 79 77 82 91 86 92 91 54 62 46 36 31 56 18 22 24 36 39 44 46 35 36 36 36 35 43 36 34 35 37 45 36 55 36 38 56 73 70 74 69 61
85 80 83 94 94 84 76 72 61 98 26 15 35 29 35 30 21 32 21 25 39 41 44 50 43 42 39 37 33 35 34 37 36 43 37 37 44 36 58 45 53 60 58 57 54
82 86 94 96 94 81 86 67 77 89 64 26 25 43 48 40 30 35 39 30 27 36 41 39 33 35 34 32 32 29 33 37 40 48 60 44 43 42 42 40 35 42 43 43 43
81 88 95 100 100 89 88 70 98 94 41 27 27 28 35 40 36 31 37 42 39 44 48 37 41 33 28 34 33 32 40 53 51 64 66 41 47 38 29 33 36 32 28 33 37
82 90 89 98 98 99 93 94 92 60 61 41 36 32 33 30 29 32 36 38 33 36 46 45 46 42 35 37 40 42 43 62 58 69 46 51 56 42 35 28 24 27 27 29 35
82 88 93 93 100 100 87 100 69 61 52 52 42 35 37 32 38 31 34 35 31 34 36 47 42 27 31 34 34 42 46 35 46 57 69 52 44 35 32 35 34 30 25 25 32
87 95 90 92 100 100 98 80 68 53 56 58 52 48 50 42 41 44 44 53 37 32 30 38 43 33 27 28 29 32 33 47 58 54 64 56 56 44 31 33 30 29 27 23 33
97 99 97 85 99 100 97 91 61 45 49 64 65 57 48 44 43 39 40 53 60 53 38 34 42 41 30 34 35 36 40 38 44 60 58 58 51 47 32 30 28 29 24 22 26
100 99 97 95 99 97 92 68 49 52 52 57 58 61 56 51 46 34 38 52 62 62 60 60 55 57 41 30 28 29 32 42 59 50 72 72 45 27 39 34 38 34 24 20 23
100 98 97 100 98 97 89 72 59 66 62 60 63 62 48 43 45 44 50 52 45 69 65 60 76 84 52 37 60 59 44 52 47 54 56 70 51 30 35 35 28 28 21 18 17
100 99 99 100 99 79 96 91 74 59 64 64 70 61 58 63 48 55 55 43 38 63 57 60 79 70 90 81 77 79 63 55 61 65 54 48 42 33 31 36 31 25 20 16 16
100 99 98 97 97 92 78 69 79 68 59 60 67 72 72 76 68 54 48 49 40 59 62 64 70 82 76 73 68 60 56 54 55 63 64 52 44 36 34 31 30 20 19 20 18
99 98 100 95 83 97 93 91 72 64 57 68 78 70 67 77 65 64 53 49 50 48 65 73 71 86 89 72 67 62 55 52 52 54 57 50 45 34 29 29 32 27 25 25 21
100 98 96 80 97 96 91 80 82 59 58 52 64 69 72 62 57 54 50 49 56 60 71 83 86 88 77 72 64 73 58 50 47 41 48 58 50 34 32 34 35 27 24 25 22